THORAD AGENA D DEB

Satellite information

Favourite Embed

Satellite Type and Status

DEBRISIN ORBIT

Key statistics

Satellite THORAD AGENA D DEB at a glance.

Uptime

20121

Days in orbit

Revolutions

≈ 13.8

Per day

Orbit

SSO

Sun Synchronous Orbit

Inclination

99.9

Latest

Satellite identification and parameters

Extended collection of information and parameters for THORAD AGENA D DEB.

Object identification

Identified? True

Debris? True

Object name: THORAD AGENA D DEB

International designator: 1970-025PT

Object number (NORAD): 19238

Object ID (CCSDS): 19238

Country: UNITED STATES OF AMERICA (US)

Current information (Y/N): Y

RCS size: SMALL

Orbital parameters

Period: 104.423 minutes

Inclination: 99.8641 deg

SMA: 7345.543 km

Apoapsis: 999.609 km

Periapsis: 935.207 km

RAAN: 301.0575 deg

Eccentricy: 0.0043837

Argument of periapsis: 61.1682 deg

Mean anomaly: 328.3672 deg

Mean motion: 13.79008375 rev/day

Mean motion (dot): 0.00001736 rev/day2

B* drag term: 0.0017345 1/REarth

Two-line elements (TLE)

Creation date: May 10, 2025, 2:32 a.m.

Reference frame: TEME

Reference center: EARTH

Epoch: May 9, 2025, 9:43 a.m. UTC

TLE line 0: 0 THORAD AGENA D DEB

TLE line 1: 1 19238U 70025PT 25129.40539485 .00001736 00000-0 17345-2 0 9993

TLE line 2: 2 19238 99.8641 301.0575 0043837 61.1682 328.3672 13.79008375884398

Live tracking on map

Real-time ground track for satellite THORAD AGENA D DEB.

In-orbit conjunctions

A list of the most updated potential collisions computed for object THORAD AGENA D DEB.

Target Orbit TCA Probability of collision Miss distance Type
SL-8 DEB LEO 2024-11-15 08:30:56 0.0004058871 416.0 (m) DEBRIS
FENGYUN 1C DEB SSO 2024-10-24 03:15:34 0.0001142116 193.0 (m) DEBRIS
SL-8 R/B LEO 2024-09-16 03:36:55 0.0001294769 733.0 (m) ROCKET BODY

Associated space launch

Meteorological research and development satellite

THORAD AGENA D DEB was lifted into orbit during the mission ‘Thorad SLV-2G Agena D | Nimbus 4’, on board a Thorad SLV-2G Agena D space rocket.

The launch took place on April 8, 1970, 8:17 a.m. from Space Launch Complex 2E.

For more information about the launch, click the button.

Launch to space Thorad SLV-2G Agena D | Nimbus 4
Thorad SLV-2G Agena D | Nimbus 4

Agency: N/A

Status: Launch Successful

Launch date: April 8, 1970, 8:17 a.m. UTC

Rocket: Thorad SLV-2G Agena D

Launch pad: Space Launch Complex 2E

Location: Vandenberg SFB, CA, USA

...

Latest news about this satellite

There are no fresh news available about this satellite. Check back as we update our databases every day.


Newsletter sign-up

Weekly statistics, charts and insights to help you stay on top of the space industry.